SCP
2 3 3 3 3 2 2 1 1 1 1 1 0 0 0 0 0 0 0 0 0 0 0 0 0 0 0 0 0 0 0 0 0 0 0 0 0 0 0 0 0 0 0
1 2 2 2 2 2 2 1 1 1 1 0 0 0 0 0 0 0 0 0 0 0 0 0 0 0 0 0 0 0 0 0 0 0 0 0 0 0 0 0 0 0 0
0 0 1 1 2 2 1 1 1 1 0 0 0 0 0 0 0 0 0 0 0 0 0 0 0 0 0 0 0 0 0 0 0 0 0 0 0 0 0 0 0 0 0
0 0 0 0 1 1 1 1 1 0 0 0 0 0 0 0 0 0 0 0 0 0 0 0 0 0 0 0 0 0 0 0 0 0 0 0 0 0 0 0 0 0 0
0 0 0 0 0 1 0 0 0 0 0 0 0 0 0 0 0 0 0 0 0 0 0 0 0 0 0 0 0 0 0 0 0 0 0 0 0 0 0 0 0 0 0
0 0 0 0 0 0 0 0 0 0 0 0 0 0 0 0 0 0 0 0 0 0 0 0 0 0 0 0 0 0 0 0 0 0 0 0 0 0 0 0 0 0 0
0 0 0 0 0 0 0 0 0 0 0 0 0 0 0 0 0 0 0 0 0 0 0 0 0 0 0 0 0 0 0 0 0 0 0 0 0 0 0 0 0 0 0
0 0 0 0 0 0 0 0 0 0 0 0 0 0 0 0 0 0 0 0 0 0 0 0 0 0 0 0 0 0 0 0 0 0 0 0 0 0 0 0 0 0 0
0 0 0 0 0 0 0 0 0 0 0 0 0 0 0 0 0 0 0 0 0 0 0 0 0 0 0 0 0 0 0 0 0 0 0 0 0 0 0 0 0 0 0
0 0 0 0 0 0 0 0 0 0 0 0 0 0 0 0 0 0 0 0 0 0 0 0 0 0 0 0 0 0 0 0 0 0 0 0 0 0 0 0 0 0 0
0 0 0 0 0 0 0 0 0 0 0 0 0 0 0 0 0 0 0 0 0 0 0 0 0 0 0 0 0 0 0 0 0 0 0 0 0 0 0 0 0 0 0
0 0 0 0 0 0 0 0 0 0 0 0 0 0 0 0 0 0 0 0 0 0 0 0 0 0 0 0 0 0 0 0 0 0 0 0 0 0 0 0 0 0 0
0 0 0 0 0 0 0 0 0 0 0 0 0 0 0 0 0 0 0 0 0 0 0 0 0 0 0 0 0 0 0 0 0 0 0 0 0 0 0 0 0 0 0
0 0 0 0 0 0 0 0 0 0 0 0 0 0 0 0 0 0 0 0 0 0 0 0 0 0 0 0 0 0 0 0 0 0 0 0 0 0 0 0 0 0 0
0 0 0 0 0 0 0 0 0 0 0 0 0 0 0 0 0 0 0 0 0 0 0 0 0 0 0 0 0 0 0 0 0 0 0 0 0 0 0 0 0 0 0
0 0 0 0 0 0 0 0 0 0 0 0 0 0 0 0 0 0 0 0 0 0 0 0 0 0 0 0 0 0 0 0 0 0 0 0 0 0 0 0 0 0 0
0 0 0 0 0 0 0 0 0 0 0 0 0 0 0 0 0 0 0 0 0 0 0 0 0 0 0 0 0 0 0 0 0 0 0 0 0 0 0 0 0 0 0
0 0 0 0 0 0 0 0 0 0 0 0 0 0 0 0 0 0 0 0 0 0 0 0 0 0 0 0 0 0 0 0 0 0 0 0 0 0 0 0 0 0 0
0 0 0 0 0 0 0 0 0 0 0 0 0 0 0 0 0 0 0 0 0 0 0 0 0 0 0 0 0 0 0 0 0 0 0 0 0 0 0 0 0 0 0
0 0 0 0 0 0 0 0 0 0 0 0 0 0 0 0 0 0 0 0 0 0 0 0 0 0 0 0 0 0 0 0 0 0 0 0 0 0 0 0 0 0 0
0 0 0 0 0 0 0 0 0 0 0 0 0 0 0 0 0 0 0 0 0 0 0 0 0 0 0 0 0 0 0 0 0 0 0 0 0 0 0 0 0 0 0
0 0 0 0 0 0 0 0 0 0 0 0 0 0 0 0 0 0 0 0 0 0 0 0 0 0 0 0 0 0 0 0 0 0 0 0 0 0 0 0 0 0 0
0 0 0 0 0 0 0 0 0 0 0 0 0 0 0 0 0 0 0 0 0 0 0 0 0 0 0 0 0 0 0 0 0 0 0 0 0 0 0 0 0 0 0
0 0 0 0 0 0 0 0 0 0 0 0 0 0 0 0 0 0 0 0 0 0 0 0 0 0 0 0 0 0 0 0 0 0 0 0 0 0 0 0 0 0 0
0 0 0 0 0 0 0 0 0 0 0 0 0 0 0 0 0 0 0 0 0 0 0 0 0 0 0 0 0 0 0 0 0 0 0 0 0 0 0 0 0 0 0
0 0 0 0 0 0 0 0 0 0 0 0 0 0 0 0 0 0 0 0 0 0 0 0 0 0 0 0 0 0 0 0 0 0 0 0 0 0 0 0 0 0 0
Wind_Speed
5 5 5 5 4 4 4 4 4 4 4 3 3 3 2 2 2 1 1 1 1 1 2 2 3 3 2 2 2 3 3 4 8 8 6 7 8 9 9 8 8 7 8
5 5 5 5 4 4 4 4 4 4 3 3 3 2 2 2 2 2 1 1 1 2 2 2 3 3 4 3 3 4 4 4 6 10 8 7 8 8 8 9 9 8 7
4 5 5 5 5 4 4 4 4 4 3 3 3 2 2 2 2 2 2 1 2 2 2 3 3 3 4 4 4 4 4 5 5 7 9 7 7 7 8 8 9 7 8
4 4 4 4 4 4 4 3 3 3 3 2 2 2 2 2 2 2 1 1 2 2 2 3 3 3 4 4 4 4 5 5 6 6 8 7 7 6 6 7 9 7 8
4 4 3 3 4 3 3 3 3 3 2 2 2 2 1 1 2 1 1 2 2 2 3 3 4 5 6 5 5 5 5 5 5 6 7 7 7 7 7 6 9 8 8
4 4 4 4 4 3 3 3 3 2 2 2 2 2 2 1 1 2 2 1 2 2 3 3 4 4 5 8 10 10 9 7 6 6 6 7 9 8 7 7 8 8 7
4 4 4 4 4 3 3 3 2 2 2 1 1 1 1 1 1 2 3 2 2 2 3 3 4 4 5 4 7 9 9 11 10 7 7 8 8 8 8 9 8 8 8
4 4 3 3 3 3 3 2 2 2 2 1 1 1 1 1 2 2 3 1 2 2 3 3 3 4 5 6 5 6 6 6 8 6 6 7 7 7 7 7 8 8 7
4 3 3 3 3 3 3 2 2 2 2 1 1 1 0 1 2 3 3 1 1 2 3 3 3 4 8 9 6 6 7 6 8 10 11 11 13 13 10 6 6 6 7
3 3 3 3 3 3 2 2 2 2 2 1 1 1 0 0 2 3 4 1 2 2 3 3 4 6 9 9 5 5 7 7 7 8 8 9 7 8 10 5 4 5 6
3 3 3 3 3 3 2 2 2 2 2 1 1 1 1 1 2 3 4 2 2 2 3 3 3 8 10 9 7 5 8 8 6 6 6 6 5 4 4 4 3 4 5
3 3 3 3 2 2 2 2 2 2 2 1 1 1 1 1 2 3 5 5 5 3 3 3 4 9 10 10 7 8 10 8 4 4 5 5 5 5 5 5 5 5 4
3 3 3 3 3 2 2 2 2 2 1 1 1 1 1 1 2 4 5 5 6 4 3 6 8 8 8 6 8 9 7 4 4 4 5 5 4 5 5 4 5 5 5
3 3 3 3 3 2 2 2 1 1 1 0 1 1 1 2 2 2 2 3 4 4 3 5 7 7 6 6 6 5 4 4 4 4 5 5 4 4 4 4 4 5 5
3 3 3 2 2 2 2 2 1 1 1 1 1 1 1 2 3 6 4 3 2 3 3 2 3 3 4 4 4 4 4 4 5 4 5 5 5 5 5 4 4 4 4
3 3 2 2 1 2 2 2 3 2 4 4 3 3 3 4 5 6 6 5 5 5 3 2 3 3 4 4 5 5 4 4 5 5 5 5 5 5 5 5 4 4 4
2 2 2 2 1 1 1 1 2 3 4 4 4 4 4 5 5 5 6 5 4 4 2 2 3 3 4 4 4 4 4 5 5 4 5 5 5 5 5 5 5 4 4
2 2 2 1 1 1 1 1 1 1 2 2 3 5 5 5 5 5 5 4 3 3 2 2 3 3 4 4 4 4 5 5 5 5 5 5 5 5 5 5 4 5 5
2 1 1 1 1 1 1 1 1 1 1 2 2 3 5 5 4 5 5 2 2 3 3 3 3 3 4 4 4 4 5 5 5 5 5 5 5 5 5 4 4 6 5
1 2 2 1 1 2 1 1 1 1 1 2 2 2 3 3 2 3 3 2 2 3 3 3 3 3 4 4 4 4 5 5 5 5 5 5 5 4 5 5 4 4 4
1 1 3 2 1 1 1 1 1 1 1 2 2 3 4 2 2 2 2 2 2 3 3 3 3 4 4 4 4 5 5 5 5 5 5 5 5 4 4 4 4 4 4
1 1 1 1 1 1 1 1 1 1 2 2 2 3 5 2 2 2 2 3 3 3 3 3 3 3 3 4 4 5 5 5 5 5 5 5 5 4 4 4 4 4 3
0 0 1 1 1 2 2 2 1 1 2 2 2 2 2 2 2 2 2 3 3 3 3 3 3 4 4 4 4 4 4 5 5 5 5 5 4 4 4 4 4 4 3
0 0 1 1 1 1 1 1 1 2 2 2 2 2 2 2 2 3 3 3 3 3 3 3 4 5 7 6 4 4 4 5 5 4 5 5 4 3 3 3 3 4 3
0 0 1 1 1 1 1 2 2 2 2 2 2 2 2 2 2 3 3 3 4 4 4 4 4 4 6 7 7 6 8 9 7 5 4 3 3 3 3 3 3 3 3
0 0 1 1 1 1 1 2 2 2 2 2 2 2 2 3 3 3 3 3 3 4 4 4 5 6 7 6 7 9 10 8 8 7 4 2 2 2 2 2 2 2 2
Wind_Direction
150 149 148 150 147 144 145 147 145 145 152 159 167 171 174 177 171 170 195 197 243 286 299 302 302 304 303 296 294 291 286 283 288 297 298 307 311 311 314 311 310 308 308
145 144 145 142 142 143 145 143 143 147 154 163 163 172 183 185 182 176 193 224 247 271 289 298 300 306 303 298 294 289 288 286 289 299 306 310 309 311 312 313 316 316 310
134 139 140 143 144 145 146 144 143 146 150 155 160 175 190 194 188 192 204 230 257 272 286 289 292 299 299 299 296 292 291 296 292 296 302 306 308 314 317 314 314 311 311
121 126 134 141 145 145 140 140 144 145 150 159 175 186 193 196 198 199 215 254 269 282 285 287 289 284 285 291 293 292 298 301 300 300 303 309 311 314 318 320 320 320 315
114 117 123 124 125 127 130 136 138 142 151 161 168 180 180 188 206 214 241 263 270 287 289 287 286 292 301 307 308 305 306 302 304 305 306 312 316 325 325 319 318 317 310
106 113 112 113 114 119 126 130 130 132 132 136 155 163 170 213 267 296 308 271 278 282 290 294 293 290 303 314 317 316 313 306 305 304 304 310 313 315 316 318 320 322 314
98 101 110 116 116 117 119 118 122 123 115 119 136 142 157 219 268 297 315 316 282 282 285 290 302 307 311 298 307 313 310 310 307 304 301 302 305 311 315 316 317 313 303
95 95 94 105 112 111 111 114 110 110 120 123 110 122 138 272 321 321 316 320 294 295 292 287 293 298 301 313 310 308 303 302 300 298 288 291 297 301 302 304 304 307 299
88 87 83 94 104 106 107 109 106 104 101 107 119 110 121 291 314 325 341 302 299 298 296 300 305 295 307 322 321 312 310 307 309 308 305 304 310 317 324 322 323 323 315
85 80 73 78 93 102 108 108 101 105 106 101 83 72 77 270 318 336 344 321 307 310 304 301 305 311 315 322 317 310 309 311 315 317 315 315 314 315 322 315 308 313 313
67 75 74 66 76 87 90 90 101 95 91 90 76 35 26 354 332 338 341 334 314 316 311 312 308 316 318 319 321 308 309 319 316 316 316 316 318 320 320 315 305 300 300
58 66 68 67 67 70 79 77 83 94 97 91 79 29 2 346 345 326 339 344 344 321 308 308 310 319 320 321 323 322 326 330 324 320 319 319 322 322 319 316 310 301 287
53 60 58 57 58 64 74 79 80 82 93 74 72 25 344 343 336 340 336 335 337 332 319 321 323 323 323 321 326 333 335 330 323 321 317 314 313 311 314 317 317 313 309
60 56 53 56 52 48 49 59 78 80 83 47 22 346 328 329 327 324 318 317 325 329 328 327 330 327 329 328 335 336 332 327 326 313 312 311 317 323 324 322 323 327 325
61 53 47 48 52 48 42 37 39 25 351 329 286 266 288 299 314 332 336 325 326 330 342 340 337 338 342 341 338 335 334 334 330 324 320 321 323 324 322 323 323 327 327
59 47 39 40 45 50 49 32 24 9 0 358 344 333 323 320 327 334 339 346 350 359 7 347 335 332 332 331 331 331 331 330 327 324 322 324 325 323 321 323 326 326 325
63 38 21 21 27 30 34 38 14 8 9 4 357 352 348 344 344 342 345 351 356 7 7 333 323 321 322 323 323 324 322 322 323 323 323 324 323 321 320 322 324 324 322
56 29 15 15 11 12 10 2 355 349 341 345 348 350 351 349 353 352 354 4 353 351 338 322 320 321 321 321 322 323 322 325 327 326 325 325 322 321 321 323 323 322 319
47 32 24 14 0 359 358 352 342 337 329 329 337 336 344 346 351 354 1 6 341 332 331 328 324 321 321 320 320 319 319 319 322 323 323 322 320 319 319 320 320 321 321
48 15 3 7 4 355 354 358 342 333 331 332 329 325 335 349 352 345 348 346 338 328 329 326 322 321 321 317 317 319 321 321 323 321 320 319 317 315 315 317 320 321 319
41 9 356 356 356 346 343 340 331 332 332 324 318 321 337 342 333 328 330 329 323 319 319 317 316 320 321 318 317 319 319 319 320 319 318 317 316 316 313 312 314 314 317
28 11 358 347 345 343 338 325 323 321 316 312 312 315 325 337 330 321 320 321 320 316 312 312 314 316 316 317 317 318 318 318 319 319 317 315 314 314 314 316 319 323 328
45 356 341 338 339 334 334 333 331 324 316 312 314 321 328 329 325 322 320 321 319 318 318 317 317 320 321 316 313 310 307 309 309 311 313 313 314 314 316 319 325 332 338
3 330 327 328 331 332 327 324 322 318 316 314 316 318 318 316 317 318 319 319 318 317 319 318 314 314 317 319 314 311 308 309 309 304 304 305 311 314 318 322 328 335 341
20 330 319 313 312 314 316 316 318 318 314 311 312 314 315 313 312 313 312 312 313 314 316 316 315 313 313 314 314 314 318 322 324 322 308 307 312 316 322 326 335 344 353
23 334 310 300 295 296 297 301 307 308 307 308 309 308 307 307 306 308 311 314 316 315 314 313 314 313 313 313 314 319 322 327 330 330 325 312 319 327 334 339 346 358 3